Time,TemperatureF,DewpointF,PressureIn,WindDirection,WindDirectionDegrees,WindSpeedMPH,WindSpeedGustMPH,Humidity,HourlyPrecipIn,Conditions,Clouds,dailyrainin,SoftwareType,DateUTC
2016-07-23 00:04:00,72.7,65.5,29.92,SSW,202,0.0,0.0,78,0.00,,,0.00,meteobridge,2016-07-23 05:04:00,
2016-07-23 00:09:00,72.5,65.7,29.92,ESE,112,0.0,0.0,79,0.00,,,0.00,meteobridge,2016-07-23 05:09:00,
2016-07-23 00:14:00,72.0,65.5,29.92,ESE,112,0.0,0.0,80,0.00,,,0.00,meteobridge,2016-07-23 05:14:00,
2016-07-23 00:19:00,72.0,65.5,29.92,WSW,247,0.0,0.0,80,0.00,,,0.00,meteobridge,2016-07-23 05:19:00,
2016-07-23 00:25:00,71.8,65.3,29.92,SW,225,0.0,0.0,80,0.00,,,0.00,meteobridge,2016-07-23 05:25:00,
2016-07-23 00:31:00,71.6,65.8,29.92,ESE,112,0.0,0.0,82,0.00,,,0.00,meteobridge,2016-07-23 05:31:00,
2016-07-23 00:36:00,71.2,65.8,29.93,SSW,202,0.0,0.0,83,0.00,,,0.00,meteobridge,2016-07-23 05:36:00,
2016-07-23 00:41:00,71.1,65.3,29.93,SSW,202,0.0,0.0,82,0.00,,,0.00,meteobridge,2016-07-23 05:41:00,
2016-07-23 00:46:00,71.1,65.3,29.93,SSW,202,0.0,0.0,82,0.00,,,0.00,meteobridge,2016-07-23 05:46:00,
2016-07-23 00:51:00,70.9,65.8,29.93,SSW,202,0.0,0.0,84,0.00,,,0.00,meteobridge,2016-07-23 05:51:00,
2016-07-23 00:56:00,70.5,65.8,29.93,ESE,112,0.0,0.0,85,0.00,,,0.00,meteobridge,2016-07-23 05:56:00,
2016-07-23 01:01:00,70.3,65.7,29.92,ESE,112,0.0,0.0,85,0.00,,,0.00,meteobridge,2016-07-23 06:01:00,
2016-07-23 01:06:00,70.2,65.8,29.93,SW,225,0.0,0.0,86,0.00,,,0.00,meteobridge,2016-07-23 06:06:00,
2016-07-23 01:11:00,70.2,65.8,29.94,SW,225,0.0,0.0,86,0.00,,,0.00,meteobridge,2016-07-23 06:11:00,
2016-07-23 01:16:00,70.2,65.8,29.94,South,180,0.0,0.0,86,0.00,,,0.00,meteobridge,2016-07-23 06:16:00,
2016-07-23 01:21:00,70.2,66.0,29.93,ENE,67,0.0,0.0,87,0.00,,,0.00,meteobridge,2016-07-23 06:21:00,
2016-07-23 01:26:00,70.3,66.2,29.93,SSW,202,0.0,0.0,87,0.00,,,0.00,meteobridge,2016-07-23 06:26:00,
2016-07-23 01:31:00,70.5,66.4,29.93,South,180,0.0,0.0,87,0.00,,,0.00,meteobridge,2016-07-23 06:31:00,
2016-07-23 01:36:00,70.9,66.6,29.92,SSW,202,0.0,0.0,86,0.00,,,0.00,meteobridge,2016-07-23 06:36:00,
2016-07-23 01:41:00,71.1,66.7,29.92,West,270,2.7,2.7,86,0.00,,,0.00,meteobridge,2016-07-23 06:41:00,
2016-07-23 01:46:00,72.0,66.6,29.92,South,180,0.0,0.0,83,0.00,,,0.00,meteobridge,2016-07-23 06:46:00,
2016-07-23 01:51:00,72.9,66.4,29.92,SW,225,0.0,0.0,80,0.00,,,0.00,meteobridge,2016-07-23 06:51:00,
2016-07-23 01:56:00,72.9,66.0,29.92,West,270,0.0,0.0,79,0.00,,,0.00,meteobridge,2016-07-23 06:56:00,
2016-07-23 02:01:00,73.0,65.8,29.92,SSE,157,0.0,0.0,78,0.00,,,0.00,meteobridge,2016-07-23 07:01:00,
2016-07-23 02:06:00,73.8,66.0,29.92,NE,45,0.0,0.0,77,0.00,,,0.00,meteobridge,2016-07-23 07:06:00,
2016-07-23 02:11:00,73.4,66.2,29.92,ENE,67,0.0,0.0,78,0.00,,,0.00,meteobridge,2016-07-23 07:11:00,
2016-07-23 02:16:00,73.4,66.2,29.92,SSE,157,0.0,0.0,78,0.00,,,0.00,meteobridge,2016-07-23 07:16:00,
2016-07-23 02:21:00,73.4,66.2,29.92,East,90,0.0,0.0,78,0.00,,,0.00,meteobridge,2016-07-23 07:21:00,
2016-07-23 02:26:00,73.4,66.2,29.92,NW,315,0.0,0.0,78,0.00,,,0.00,meteobridge,2016-07-23 07:26:00,
2016-07-23 02:31:00,73.4,66.2,29.91,East,90,0.0,0.0,78,0.00,,,0.00,meteobridge,2016-07-23 07:31:00,
2016-07-23 02:36:00,73.4,66.6,29.91,SSW,202,0.0,0.0,79,0.00,,,0.00,meteobridge,2016-07-23 07:36:00,
2016-07-23 02:41:00,73.0,66.2,29.91,West,270,0.0,0.0,79,0.00,,,0.00,meteobridge,2016-07-23 07:41:00,
2016-07-23 02:46:00,72.9,66.4,29.91,West,270,0.0,0.0,80,0.00,,,0.00,meteobridge,2016-07-23 07:46:00,
2016-07-23 02:51:00,72.9,66.4,29.91,West,270,0.0,0.0,80,0.00,,,0.00,meteobridge,2016-07-23 07:51:00,
2016-07-23 02:56:00,72.9,66.4,29.91,East,90,0.0,0.0,80,0.00,,,0.00,meteobridge,2016-07-23 07:56:00,
2016-07-23 03:01:00,72.9,66.7,29.90,ENE,67,0.0,0.0,81,0.00,,,0.00,meteobridge,2016-07-23 08:01:00,
2016-07-23 03:06:00,72.7,66.6,29.90,NNE,22,0.0,0.0,81,0.00,,,0.00,meteobridge,2016-07-23 08:06:00,
2016-07-23 03:11:00,72.7,66.6,29.90,SSW,202,0.0,0.0,81,0.00,,,0.00,meteobridge,2016-07-23 08:11:00,
2016-07-23 03:16:00,72.7,66.6,29.91,SSW,202,0.0,0.0,81,0.00,,,0.00,meteobridge,2016-07-23 08:16:00,
2016-07-23 03:21:00,72.5,66.4,29.91,SSW,202,0.0,0.0,81,0.00,,,0.00,meteobridge,2016-07-23 08:21:00,
2016-07-23 03:26:00,72.1,66.0,29.91,SSW,202,0.0,0.0,81,0.00,,,0.00,meteobridge,2016-07-23 08:26:00,
2016-07-23 03:31:00,72.1,66.0,29.91,SSW,202,0.0,0.0,81,0.00,,,0.00,meteobridge,2016-07-23 08:31:00,
2016-07-23 03:36:00,72.0,65.8,29.91,SSW,202,0.0,0.0,81,0.00,,,0.00,meteobridge,2016-07-23 08:36:00,
2016-07-23 03:41:00,72.0,66.2,29.92,SSW,202,0.0,0.0,82,0.00,,,0.00,meteobridge,2016-07-23 08:41:00,
2016-07-23 03:51:00,71.8,66.7,29.92,South,180,0.0,0.0,84,0.00,,,0.00,meteobridge,2016-07-23 08:51:00,
2016-07-23 03:56:00,71.8,66.7,29.92,South,180,0.0,0.0,84,0.00,,,0.00,meteobridge,2016-07-23 08:56:00,
2016-07-23 04:01:00,71.8,67.1,29.91,ESE,112,0.0,0.0,85,0.00,,,0.00,meteobridge,2016-07-23 09:01:00,
2016-07-23 04:06:00,71.8,67.1,29.92,SSW,202,0.0,0.0,85,0.00,,,0.00,meteobridge,2016-07-23 09:06:00,
2016-07-23 04:11:00,71.8,67.1,29.92,NNE,22,0.0,0.0,85,0.00,,,0.00,meteobridge,2016-07-23 09:11:00,
2016-07-23 04:16:00,71.8,67.1,29.92,NNE,22,0.0,0.0,85,0.00,,,0.00,meteobridge,2016-07-23 09:16:00,
2016-07-23 04:21:00,72.0,67.3,29.92,SSW,202,0.0,0.0,85,0.00,,,0.00,meteobridge,2016-07-23 09:21:00,
2016-07-23 04:26:00,72.0,66.9,29.91,NNE,22,0.0,0.0,84,0.00,,,0.00,meteobridge,2016-07-23 09:26:00,
2016-07-23 04:31:00,72.1,67.1,29.92,South,180,0.0,0.0,84,0.00,,,0.00,meteobridge,2016-07-23 09:31:00,
2016-07-23 04:36:00,72.7,67.6,29.93,SW,225,0.0,0.0,84,0.00,,,0.00,meteobridge,2016-07-23 09:36:00,
2016-07-23 04:41:00,72.7,67.3,29.93,NW,315,0.0,0.0,83,0.00,,,0.00,meteobridge,2016-07-23 09:41:00,
2016-07-23 04:46:00,72.7,67.3,29.93,NNE,22,0.0,0.0,83,0.00,,,0.00,meteobridge,2016-07-23 09:46:00,
2016-07-23 04:51:00,72.7,67.3,29.92,SW,225,0.0,0.0,83,0.00,,,0.00,meteobridge,2016-07-23 09:51:00,
2016-07-23 04:56:00,72.7,67.3,29.93,SSW,202,0.0,0.0,83,0.00,,,0.00,meteobridge,2016-07-23 09:56:00,
2016-07-23 05:01:00,72.7,67.3,29.93,SW,225,0.0,0.0,83,0.00,,,0.00,meteobridge,2016-07-23 10:01:00,